sat.trackr.live / text

‹ back to catalog

STARLINK-36785

NORAD 67853 · 2026-034D

PAYLOAD ACTIVE UNKNOWN

§ Identity

Operator
Country
US
Launch date
2026-02-20
Launch site
AFETR
Launch vehicle
Mass (kg)
RCS (m²)

Purposes: comms

External: N2YO · Heavens-Above · Gunter

§ Orbital elements

Epoch: 2026-09-19T22:27:29.427264Z

Period
93.85 min
Inclination
53.1577°
Eccentricity
0.0001951
Mean motion
15.34413121 rev/d
Perigee alt
461.3 km
Apogee alt
464.0 km
Semi-major
6,840.8 km
B*
4.9424e-4
RAAN
20.0014°
Arg perigee
81.8898°
Mean anomaly
278.2326°
Rev number
3,380

§ Raw data

STARLINK-367851 67853U 26034D   26262.93575726  .00016366  00000+0  49424-3 0  99932 67853  53.1577  20.0014 0001951  81.8898 278.2326 15.34413121 33803

JSON: /api/v1/satellites/67853 · /tle

For live sub-satellite position, see the globe view (requires WebGL).

§ Visibility from observer

Set your observer location to see the next 7 days of passes ≥ 10°. The values pass through the URL so the page stays shareable.

No JS? Fill the form by hand. The geolocation button needs JavaScript.